Volver al catálogo

STARLINK-1973

ActivoComunicacionesVLEO
NORAD 47628·PAYLOAD·🇺🇸 United States

Lanzado Feb 16, 2021 desde Cape Canaveral Space Force Station

Loading…

Próximos Pases (próximas 24 horas)

TLE

ActualizadoSource: CelesTrak SupGP

Época: Sep 14, 2026, 21:53 UTC

1 47628C 21012J   26257.91229167  .00052843  00000+0  16997-2 0  2574
2 47628  53.1568 264.3932 0001298  95.9191 186.9802 15.31667347    18

Sigue STARLINK-1973 en tiempo real con AllMySat

Download on the App Store